Location: Buckeye Ditch
(40.9104°N, 122.9517°W)
Time: 12:25:34
(UTC+00:00)

Explorer 7 - Pass Details

Date: 23 May 2025
Orbit: 445 x 571 km, 50.3° (Epoch: 22 June)

Event Time Altitude Azimuth Distance (km) Brightness Sun altitude
Rises 14:07:43 0° 305° (NW) 2,597 9.9 13.2°
Reaches altitude 10° 14:09:57 10° 313° (NW) 1,734 9.1 13.6°
Maximum altitude 14:13:43 42° 25° (NNE) 763 8.2 14.3°
Drops below altitude 10° 14:17:38 10° 97° (E) 1,803 11.0 15.0°
Sets 14:20:00 0° 104° (ESE) 2,714 11.5 15.5°
